{"data":{"norad_id":38352,"intl_designator":"2012-028A","name":"ZHONGXING-2A","alt_names":[],"object_type":"PAYLOAD","status":"ACTIVE","operator":null,"country":"PRC","launch_date":"2012-05-26","launch_site_code":"XICLF","launch_vehicle":null,"mission":null,"orbit_class":"UNKNOWN","rcs_meters":19.9526,"size_class":null,"mass_kg":null,"dimensions":null,"purposes":["comms"],"wikipedia_slug":null,"has_3d_model":false,"image_url":null,"decayed_at":null,"tle_current":{"epoch":"2026-05-24T21:21:56.499264Z","epoch_age_seconds":77692,"freshness":"FRESH","line1":"1 38352U 12028A   26144.89023726 -.00000295  00000+0  00000+0 0  9993","line2":"2 38352   1.3965  84.1640 0003055  36.8187 180.2154  1.00269155 51068","mean_motion":1.00269155,"eccentricity":0.0003055,"inclination_deg":1.3965,"raan_deg":84.164,"arg_perigee_deg":36.8187,"mean_anomaly_deg":180.2154,"bstar":0,"rev_number":5106,"period_min":1436.1345719928,"perigee_km":35774.450710918,"apogee_km":35800.213812637,"semimajor_km":42165.469261778,"source":"CELESTRAK","updated_at":"2026-05-25T13:38:13.911532Z"}}}